Regional Weather Roundup
Issued by NWS Northern Indiana

Home | Current Version | Previous Version | Graphics & Text | Print | Product List | Glossary On
Versions: 1 2 3 4 5 6 7 8 9 10 11 12 13 14 15 16 17 18 19 20 21 22 23 24 25 26 27 28 29 30 31 32 33 34 35 36 37 38 39 40 41 42 43 44 45 46 47 48 49 50
000
ASUS43 KIWX 202201
RWRIWX

KIWX WEATHER ROUNDUP
NATIONAL WEATHER SERVICE NORTHERN INDIANA
600 PM EDT SUN AUG 20 2017

NOTE: "FAIR" INDICATES FEW OR NO CLOUDS BELOW 12,000 FEET WITH NO
SIGNIFICANT WEATHER AND/OR OBSTRUCTIONS TO VISIBILITY.

* THESE STATIONS ARE NOT UNDER NWS QUALITY CONTROL. THEY ALSO MAY NOT
  REPORT WEATHER SUCH AS PRECIPITATION OR FOG.

INZ001>027-202300-
NORTHERN INDIANA

CITY           SKY/WX    TMP DP  RH WIND       PRES   REMARKS
GARY*          CLOUDY    86  66  51 S5        30.02F
SOUTH BEND     LGT RAIN  83  64  52 SW7       30.05S
GOSHEN         PTSUNNY   82  63  52 SW5       30.05S
MONTICELLO*    SUNNY     87  64  45 CALM      30.03S
FORT WAYNE     MOSUNNY   85  62  46 W10       30.05S
PERU/GRISSOM   SUNNY     86  64  48 W5        30.05R

$$
INZ028>050-202300-
CENTRAL INDIANA

CITY           SKY/WX    TMP DP  RH WIND       PRES   REMARKS
LAFAYETTE      SUNNY     87  66  49 SW5       30.02S
KOKOMO*        SUNNY     87  65  47 NW5       30.07R
MUNCIE*        MOSUNNY   87  62  43 NW9       30.06R
INDIANAPOLIS   PTSUNNY   89  65  44 S9        30.03S

$$
MIZ043>046-050>051-056>058-064>065-071>073-077>080-202300-
SOUTHWEST LOWER MICHIGAN

CITY           SKY/WX    TMP DP  RH WIND       PRES   REMARKS
BATTLE CREEK   MOSUNNY   86  55  34 W7        30.06R
BENTON HARBOR  MOSUNNY   84  60  44 W6        30.03S
COLDWATER*     MOSUNNY   83  60  44 SW6       30.06S
HILLSDALE*     CLOUDY    81  63  54 S3        30.07R
HOLLAND        MOSUNNY   82  62  50 SW8       30.04S
GRAND RAPIDS   PTSUNNY   82  58  43 S10       30.04S
KALAMAZOO      MOSUNNY   86  57  37 SW6       30.05R
STURGIS*       MOSUNNY   82  64  54 SW6       30.05S
THREE RIVERS*  FAIR      84  61  44 SW7       30.05R

$$
OHZ001>008-015>018-024>025-202300-
NORTHWEST OHIO

CITY           SKY/WX    TMP DP  RH WIND       PRES   REMARKS
DEFIANCE       MOSUNNY   85  63  47 SW3       30.04S
FINDLAY        MOSUNNY   85  67  54 SE6       30.03F
TOLEDO EXPRESS MOSUNNY   83  66  56 CALM      30.04F
TOLEDO METCALF SUNNY     83  66  56 S5        30.05F
LIMA           CLOUDY    84  69  60 S3        30.05S

$$
AND FOR LAKE MICHIGAN COASTAL AND OPEN LAKE BUOY OBSERVATIONS

STATION/POSITION TEMP    WIND        PRES    VSBY  WAVE
                 AIR SEA DIR/SP/G                  HT/PER
                 (F)     (DEG/KT/KT) (MB)    (MI)  (FT/S)
CALUMET HARBOR    83     200/  8/ 14 1015.5F
MICHIGAN CITY     83     170/  6/  8   N/A
BURNS HARBOR      84     190/  6/ 10 1016.6F
SAINT JOSEPH      83     340/  2/  2 1017.9
SOUTH LAKE BUOY   73 72  130/  6/  8 1016.6          1/ 3
4 MI NW BRIDGMAN  81 78  100/  4/  6 1016.0F         0
MICHIGAN CITY     79 77  140/  4/  4   N/A           1

$$
&&




USA.gov is the U.S. government's official web portal to all federal, state and local government web resources and services.